Location: Lynch Observatory
(39.9540°N, 75.1861°W)
Time: 00:16:18
(UTC-04:00)

UWE-3 - Pass Details

Date: 30 April 2024
Orbit: 569 x 652 km, 97.8° (Epoch: 27 May)

Event Time Altitude Azimuth Distance (km) Brightness Sun altitude
Rises 02:15:20 0° 36° (NE) 2,907 ? -32.2°
Reaches altitude 10° 02:18:57 10° 68° (ENE) 2,014 ? -32.0°
Enters shadow 02:20:26 12° 88° (E) 1,889 ? -31.8°
